Hourly Weather Allschwil

Today, 2 March, Tuesday

Time Temperature Precipitation Wind Pressure Humidity
00:00 +5°C° 0 mm 1 mps 744 mmHg 82%
01:00 +5°C° 0 mm 1 mps 744 mmHg 82%
02:00 +5°C° 0 mm 1 mps 744 mmHg 82%
03:00 +5°C° 0 mm 1 mps 744 mmHg 83%
04:00 +4°C° 0 mm 1 mps 744 mmHg 83%
05:00 +4°C° 0 mm 1 mps 744 mmHg 82%
06:00 +4°C° 0 mm 1 mps 744 mmHg 81%
07:00 +4°C° 0 mm 1 mps 744 mmHg 80%
08:00 +6°C° 0 mm 1 mps 744 mmHg 72%
09:00 +8°C° 0 mm 1 mps 744 mmHg 64%
10:00 +10°C° 0 mm 1 mps 744 mmHg 56%
11:00 +11°C° 0 mm 1 mps 744 mmHg 52%
12:00 +13°C° 0 mm 1 mps 744 mmHg 48%
13:00 +15°C° 0 mm 1 mps 744 mmHg 43%
14:00 +15°C° 0 mm 1 mps 744 mmHg 44%
15:00 +15°C° 0 mm 1 mps 744 mmHg 45%
16:00 +16°C° 0 mm 1 mps 744 mmHg 46%
17:00 +14°C° 0 mm 1 mps 744 mmHg 51%
18:00 +11°C° 0 mm 1 mps 744 mmHg 57%
19:00 +9°C° 0 mm 1 mps 744 mmHg 63%
20:00 +9°C° 0 mm 1 mps 744 mmHg 63%
21:00 +8°C° 0 mm 1 mps 745 mmHg 62%
22:00 +7°C° 0 mm 1 mps 745 mmHg 61%
23:00 +7°C° 0 mm 1 mps 745 mmHg 61%

Tomorrow, 3 March, Wednesday

Time Temperature Precipitation Wind Pressure Humidity
00:00 +7°C° 0 mm 1 mps 745 mmHg 60%
01:00 +6°C° 0 mm 1 mps 745 mmHg 59%
02:00 +6°C° 0 mm 1 mps 745 mmHg 60%
03:00 +6°C° 0 mm 1 mps 744 mmHg 60%
04:00 +6°C° 0 mm 1 mps 744 mmHg 61%
05:00 +5°C° 0 mm 1 mps 744 mmHg 62%
06:00 +5°C° 0 mm 1 mps 744 mmHg 63%
07:00 +5°C° 0 mm 1 mps 744 mmHg 64%
08:00 +7°C° 0 mm 1 mps 744 mmHg 61%
09:00 +9°C° 0 mm 1 mps 744 mmHg 58%
10:00 +11°C° 0 mm 1 mps 744 mmHg 55%
11:00 +13°C° 0 mm 1 mps 744 mmHg 51%
12:00 +15°C° 0 mm 1 mps 744 mmHg 48%
13:00 +16°C° 0 mm 1 mps 744 mmHg 45%
14:00 +18°C° 0 mm 1 mps 743 mmHg 46%
15:00 +18°C° 0 mm 1 mps 743 mmHg 46%
16:00 +18°C° 0 mm 1 mps 742 mmHg 47%
17:00 +15°C° 0 mm 1 mps 742 mmHg 53%
18:00 +13°C° 0 mm 1 mps 742 mmHg 59%
19:00 +9°C° 0 mm 0 mps 742 mmHg 65%
20:00 +10°C° 0 mm 1 mps 742 mmHg 67%
21:00 +10°C° 0 mm 1 mps 741 mmHg 69%
22:00 +9°C° 0 mm 1 mps 741 mmHg 72%
23:00 +9°C° 0 mm 1 mps 741 mmHg 73%

Day after tomorrow, 4 March, Thursday

Time Temperature Precipitation Wind Pressure Humidity
00:00 +9°C° 0 mm 1 mps 741 mmHg 74%
01:00 +8°C° 0 mm 1 mps 740 mmHg 76%
02:00 +8°C° 0 mm 1 mps 740 mmHg 76%
03:00 +8°C° 0 mm 1 mps 740 mmHg 76%
04:00 +8°C° 0 mm 1 mps 739 mmHg 77%
05:00 +7°C° 0 mm 1 mps 739 mmHg 77%
06:00 +7°C° 0 mm 1 mps 739 mmHg 77%
07:00 +7°C° 0 mm 1 mps 739 mmHg 78%
08:00 +9°C° 0 mm 1 mps 738 mmHg 73%
09:00 +10°C° 0 mm 1 mps 738 mmHg 68%
10:00 +11°C° 0 mm 1 mps 738 mmHg 64%
11:00 +12°C° 0.1 mm 1 mps 737 mmHg 63%
12:00 +13°C° 0.1 mm 2 mps 737 mmHg 62%
13:00 +14°C° 0.1 mm 2 mps 737 mmHg 62%
14:00 +13°C° 0.3 mm 2 mps 736 mmHg 68%
15:00 +12°C° 0.3 mm 2 mps 736 mmHg 75%
16:00 +10°C° 0.3 mm 2 mps 735 mmHg 82%
17:00 +9°C° 0.2 mm 2 mps 735 mmHg 85%
18:00 +10°C° 0.2 mm 1 mps 735 mmHg 88%
19:00 +9°C° 0.2 mm 1 mps 735 mmHg 91%
20:00 +8°C° 0.1 mm 1 mps 735 mmHg 92%
21:00 +8°C° 0.1 mm 1 mps 735 mmHg 93%
22:00 +7°C° 0.1 mm 1 mps 735 mmHg 94%
23:00 +7°C° 0.1 mm 1 mps 735 mmHg 94%

5 March, Friday

Time Temperature Precipitation Wind Pressure Humidity
00:00 +7°C° 0.1 mm 1 mps 735 mmHg 94%
01:00 +7°C° 0.1 mm 1 mps 735 mmHg 94%
02:00 +7°C° 0.1 mm 1 mps 735 mmHg 94%
03:00 +7°C° 0.1 mm 1 mps 735 mmHg 94%
04:00 +7°C° 0.1 mm 1 mps 735 mmHg 94%
05:00 +7°C° 0.1 mm 1 mps 735 mmHg 94%
06:00 +6°C° 0.1 mm 2 mps 736 mmHg 93%
07:00 +6°C° 0.1 mm 2 mps 736 mmHg 93%
08:00 +5°C° 0.1 mm 2 mps 736 mmHg 92%
09:00 +5°C° 0.1 mm 2 mps 736 mmHg 90%
10:00 +4°C° 0.1 mm 3 mps 736 mmHg 89%
11:00 +4°C° 0.1 mm 3 mps 737 mmHg 86%
12:00 +5°C° 0.1 mm 3 mps 737 mmHg 83%
13:00 +5°C° 0.1 mm 3 mps 737 mmHg 80%
14:00 +5°C° 0 mm 3 mps 737 mmHg 78%
15:00 +5°C° 0 mm 3 mps 737 mmHg 76%
16:00 +4°C° 0 mm 4 mps 737 mmHg 75%
17:00 +3°C° 0.2 mm 3 mps 738 mmHg 78%
18:00 +3°C° 0.2 mm 3 mps 738 mmHg 81%
19:00 +3°C° 0.2 mm 2 mps 739 mmHg 84%
20:00 +2°C° 0.1 mm 2 mps 739 mmHg 86%
21:00 +2°C° 0.1 mm 2 mps 740 mmHg 88%
22:00 +2°C° 0.1 mm 2 mps 741 mmHg 90%
23:00 +1°C° 0 mm 2 mps 741 mmHg 89%

6 March, Saturday

Time Temperature Precipitation Wind Pressure Humidity
00:00 +1°C° 0 mm 2 mps 741 mmHg 89%
01:00 -1°C° 0 mm 2 mps 741 mmHg 88%
02:00 -1°C° 0 mm 2 mps 741 mmHg 88%
03:00 -2°C° 0 mm 2 mps 741 mmHg 88%
04:00 -2°C° 0 mm 2 mps 741 mmHg 88%
05:00 -2°C° 0 mm 2 mps 741 mmHg 87%
06:00 -2°C° 0 mm 2 mps 741 mmHg 87%
07:00 -3°C° 0 mm 2 mps 742 mmHg 87%
08:00 -1°C° 0 mm 3 mps 742 mmHg 81%
09:00 0°C° 0 mm 3 mps 742 mmHg 75%
10:00 0°C° 0 mm 4 mps 742 mmHg 69%
11:00 +3°C° 0 mm 4 mps 742 mmHg 61%
12:00 +4°C° 0 mm 4 mps 742 mmHg 54%
13:00 +5°C° 0 mm 4 mps 742 mmHg 46%
14:00 +6°C° 0 mm 4 mps 742 mmHg 44%
15:00 +6°C° 0 mm 4 mps 742 mmHg 42%
16:00 +6°C° 0 mm 4 mps 742 mmHg 40%
17:00 +4°C° 0 mm 3 mps 742 mmHg 44%
18:00 +3°C° 0 mm 3 mps 742 mmHg 49%
19:00 +2°C° 0 mm 2 mps 742 mmHg 54%
20:00 +1°C° 0 mm 2 mps 742 mmHg 56%
21:00 +1°C° 0 mm 2 mps 743 mmHg 57%
22:00 -1°C° 0 mm 2 mps 743 mmHg 59%
23:00 -1°C° 0 mm 2 mps 743 mmHg 61%

7 March, Sunday

Time Temperature Precipitation Wind Pressure Humidity
00:00 0°C° 0 mm 1 mps 743 mmHg 62%
01:00 0°C° 0 mm 1 mps 742 mmHg 63%
02:00 0°C° 0 mm 1 mps 742 mmHg 63%
03:00 0°C° 0 mm 1 mps 742 mmHg 63%
04:00 -1°C° 0 mm 1 mps 742 mmHg 63%
05:00 -1°C° 0 mm 1 mps 742 mmHg 64%
06:00 -1°C° 0 mm 1 mps 742 mmHg 64%
07:00 -1°C° 0 mm 1 mps 742 mmHg 64%
08:00 +1°C° 0 mm 1 mps 742 mmHg 58%
09:00 +3°C° 0 mm 1 mps 741 mmHg 52%
10:00 +5°C° 0 mm 1 mps 741 mmHg 46%
11:00 +6°C° 0 mm 1 mps 741 mmHg 45%
12:00 +7°C° 0 mm 1 mps 741 mmHg 44%
13:00 +9°C° 0 mm 1 mps 740 mmHg 42%
14:00 +9°C° 0 mm 1 mps 740 mmHg 44%
15:00 +9°C° 0 mm 1 mps 739 mmHg 45%
16:00 +8°C° 0 mm 2 mps 739 mmHg 46%
17:00 +7°C° 0 mm 1 mps 739 mmHg 54%
18:00 +5°C° 0 mm 1 mps 738 mmHg 62%
19:00 +3°C° 0 mm 1 mps 738 mmHg 69%
20:00 +2°C° 0 mm 1 mps 738 mmHg 69%
21:00 +2°C° 0 mm 1 mps 739 mmHg 70%
22:00 +1°C° 0 mm 1 mps 739 mmHg 70%
23:00 +1°C° 0 mm 1 mps 739 mmHg 70%
Show more